CAPE
381 362 271 334 522 572 576 574 621 578 865 916 844 828 807 699 642 483 640 568 750 663 515 383 251 231 260 162 125 23 0 0 0 0 0 9 8 0 1 2 3 0 3
540 490 388 340 460 590 639 656 695 705 822 906 824 675 422 386 519 630 630 580 714 836 633 432 357 268 185 131 91 50 17 0 0 0 6 17 0 22 6 4 2 2 3
874 737 564 388 409 618 675 690 752 726 840 913 750 400 233 363 378 512 583 653 611 511 467 435 412 400 265 149 94 61 42 24 14 0 9 3 0 10 35 34 25 30 19
994 970 756 491 430 541 574 612 694 708 922 909 660 448 217 362 387 464 562 720 805 561 570 188 440 427 337 227 129 102 59 41 59 15 11 14 22 16 9 46 41 68 41
1107 1061 908 626 525 517 515 568 634 699 939 898 668 374 379 175 278 420 485 597 745 663 757 592 370 367 388 271 213 169 88 65 48 74 87 21 48 23 75 43 28 9 39
1172 1134 917 670 732 701 673 650 580 521 683 768 694 525 596 596 308 257 441 520 616 621 746 914 729 549 402 373 311 222 177 150 144 122 146 77 5 3 37 57 56 38 20
1180 1120 978 810 889 882 772 875 760 630 743 675 671 718 712 752 728 421 415 450 513 534 659 902 1006 921 675 598 510 507 568 354 321 246 158 139 71 15 9 32 58 55 34
1052 1127 940 832 1002 969 915 835 920 852 877 904 774 779 800 794 827 651 602 682 573 464 528 497 765 833 889 855 778 691 562 501 446 393 238 213 223 121 62 44 62 71 26
909 1104 889 840 1135 1051 998 912 974 992 1108 1313 1319 1245 1127 1123 1094 874 793 745 742 536 404 405 479 636 761 902 894 890 861 838 752 675 506 435 403 299 225 144 89 113 92
907 892 912 923 1189 1195 1284 1359 1304 1324 1513 1763 1705 1609 1641 1575 1405 1214 1254 1187 1045 1006 866 556 639 759 980 1146 1110 1120 1093 908 924 891 812 728 577 426 395 352 174 130 157
1011 1056 1078 969 1037 1348 1575 1548 1860 1925 1983 1772 353 1438 1584 1561 1738 1732 1532 1399 1467 1518 1488 1412 1292 1200 1126 1191 1332 1372 1278 1071 1006 934 890 877 733 617 525 421 332 257 171
916 956 1028 1051 1102 798 870 1087 1616 2105 2394 2249 1944 1734 1808 1567 1572 1706 1875 2024 1813 1613 1505 1505 1561 1568 1531 1451 1541 1257 1300 1146 1077 1035 994 1058 911 891 678 534 406 416 325
527 561 401 228 6 44 142 10 189 95 582 2383 2477 2344 2088 1935 1887 1789 1545 1642 1867 1974 1915 1735 1567 1480 1490 1522 1672 1710 1440 1347 1314 1369 1342 1371 1251 1157 888 844 750 671 650
541 400 157 91 71 237 242 318 887 1270 852 1208 2426 2539 2478 2308 2288 2366 2298 2267 2097 2122 2105 1926 1859 1696 1768 1982 1809 1843 1685 1533 1551 1610 1669 1626 1432 1174 1047 1024 988 913 779
820 913 643 261 348 692 654 242 403 1263 1809 1793 2491 2669 2720 2734 2682 2705 2746 2705 2651 2613 2517 2440 2207 2058 2281 2129 2023 2020 1932 1862 1835 1822 1875 1677 1551 1321 1202 1119 1016 998 809
607 810 779 629 537 363 225 127 549 1623 2249 2589 2959 3049 2941 2905 2850 2842 2907 2838 2825 2823 2675 2534 2430 2236 2202 2400 2273 2303 2226 2148 2049 1933 1922 1820 1759 1417 1311 1185 1231 1153 1019
567 664 670 534 673 470 369 154 485 964 1814 2433 2541 1981 2253 2475 2837 2901 2929 2847 2850 2779 2644 2699 2597 2471 2399 2355 2454 2376 2527 2242 2074 1832 1903 1862 1780 1505 1417 1309 1330 1067 1139
758 629 540 496 542 424 230 219 232 705 1237 1993 2142 1331 896 2338 2505 2509 2703 2815 2791 2820 2719 2684 2614 2589 2599 2512 2542 2514 2340 2317 2074 1845 1810 1615 1362 1403 1259 1184 1225 962 895
827 842 778 637 475 413 414 540 601 602 789 821 626 615 784 942 1189 1758 2471 2600 2611 2634 2649 2647 2655 2534 2576 2482 2511 2395 2253 2151 1875 1893 1719 1474 1367 1346 1320 1293 1143 1073 1089
509 545 453 531 679 702 612 475 456 340 300 311 355 390 456 446 271 443 1402 2090 2823 2718 2639 2636 2622 2546 2486 2411 2505 2350 2326 2111 1792 1678 1738 1579 1539 1411 1115 1031 1094 1105 1098
218 246 445 476 494 541 470 300 129 35 87 103 20 11 4 0 12 370 517 909 2470 3312 2890 2864 2647 2606 2392 2302 2277 2174 2452 2329 1828 1625 1595 1695 1512 1384 1221 1048 1070 1123 1102
6 38 296 304 404 454 390 256 109 136 108 6 1 0 1 5 75 356 441 537 1427 3233 3055 2895 2147 1340 1177 725 359 497 1080 2196 1951 1735 1597 1467 946 885 803 579 729 661 534
12 150 32 420 470 439 435 419 275 238 120 0 0 0 0 0 83 158 274 591 1140 2340 2725 2100 1509 639 440 159 5 1 45 304 1645 1604 1606 911 646 605 543 392 333 185 257
0 0 23 489 552 498 544 454 440 415 206 57 11 0 0 0 7 193 147 34 684 1666 1801 1490 1118 504 343 332 416 29 10 69 252 427 734 431 366 414 384 283 163 184 190
0 0 0 0 408 629 586 467 449 410 184 57 0 0 0 0 0 75 18 7 114 724 1282 1250 825 705 616 433 121 1 0 58 218 248 338 421 491 499 420 309 242 179 236
0 0 0 0 0 47 390 318 447 451 296 13 0 0 0 0 0 19 65 0 0 192 430 490 868 391 202 72 49 1 73 73 142 244 428 302 232 331 341 251 170 108 87
CIN
-257 -309 -374 -350 -320 -291 -244 -206 -183 -190 -139 -130 -97 -77 -77 -86 -98 -90 -62 -55 -52 -55 -52 -63 -62 -82 -73 -77 -81 -121 -86 -0 -0 -0 -28 -83 -119 -0 -65 -89 -137 -0 -107
-310 -293 -342 -343 -343 -312 -294 -239 -201 -170 -148 -127 -120 -105 -109 -103 -83 -84 -66 -62 -55 -56 -55 -59 -65 -76 -78 -89 -85 -85 -98 -0 -0 -0 -55 -25 -0 -84 -136 -145 -43 -124 -130
-270 -269 -308 -380 -376 -338 -297 -268 -223 -187 -148 -141 -133 -134 -154 -119 -117 -105 -78 -62 -57 -58 -65 -68 -73 -75 -85 -83 -88 -85 -70 -57 -57 -0 -44 -33 -0 -68 -83 -72 -63 -56 -63
-294 -272 -264 -348 -356 -320 -326 -287 -245 -199 -152 -146 -110 -86 -115 -105 -127 -93 -75 -62 -59 -53 -63 -109 -71 -67 -84 -86 -94 -91 -89 -82 -61 -99 -121 -88 -62 -49 -73 -47 -43 -29 -50
-245 -287 -284 -286 -343 -354 -333 -291 -250 -201 -177 -156 -119 -133 -113 -127 -134 -99 -72 -67 -62 -62 -57 -65 -69 -71 -80 -94 -89 -86 -97 -93 -78 -62 -50 -101 -60 -52 -30 -49 -45 -65 -34
-227 -295 -313 -325 -317 -317 -346 -272 -278 -227 -209 -180 -168 -177 -126 -86 -132 -147 -104 -77 -65 -70 -64 -54 -53 -65 -81 -80 -85 -91 -87 -93 -78 -73 -53 -68 -73 -66 -89 -77 -77 -57 -54
-203 -272 -305 -371 -343 -329 -321 -255 -235 -223 -207 -208 -208 -197 -155 -100 -99 -126 -114 -102 -89 -85 -72 -68 -57 -54 -73 -77 -79 -68 -69 -92 -79 -77 -82 -83 -92 -111 -117 -78 -69 -59 -61
-227 -246 -313 -380 -367 -335 -329 -278 -232 -222 -222 -193 -210 -199 -165 -138 -120 -123 -124 -110 -101 -92 -87 -93 -85 -81 -84 -82 -79 -67 -74 -82 -80 -75 -92 -91 -77 -92 -92 -77 -54 -47 -78
-272 -299 -369 -419 -380 -348 -328 -319 -275 -263 -218 -196 -196 -194 -174 -135 -120 -126 -133 -133 -118 -118 -102 -104 -83 -98 -105 -86 -83 -67 -70 -59 -54 -59 -69 -72 -77 -79 -71 -68 -57 -32 -19
-328 -397 -397 -418 -389 -385 -361 -298 -267 -231 -215 -184 -143 -152 -152 -153 -131 -109 -90 -114 -124 -106 -102 -112 -99 -108 -104 -90 -85 -59 -67 -47 -43 -48 -44 -47 -66 -67 -63 -57 -66 -49 -18
-356 -348 -361 -366 -377 -345 -296 -273 -233 -214 -169 -179 -340 -196 -140 -179 -142 -110 -92 -103 -98 -89 -82 -86 -87 -84 -88 -94 -98 -55 -60 -32 -31 -44 -33 -32 -43 -37 -42 -67 -63 -47 -45
-324 -350 -333 -311 -289 -376 -453 -289 -187 -187 -177 -162 -144 -152 -155 -174 -165 -140 -120 -92 -78 -93 -86 -82 -70 -73 -72 -76 -76 -41 -58 -41 -35 -30 -33 -29 -40 -32 -40 -53 -50 -29 -47
-367 -406 -406 -416 -368 -623 -554 -710 -431 -400 -344 -174 -145 -144 -149 -148 -132 -152 -175 -140 -106 -73 -72 -87 -94 -96 -86 -68 -61 -52 -46 -42 -32 -25 -23 -21 -22 -20 -45 -46 -39 -33 -21
-406 -443 -411 -391 -446 -466 -422 -350 -145 -224 -299 -268 -205 -161 -141 -139 -120 -123 -130 -123 -135 -111 -97 -111 -107 -109 -87 -67 -61 -47 -47 -38 -29 -23 -19 -19 -23 -14 -34 -37 -36 -43 -48
-251 -290 -298 -367 -417 -384 -423 -520 -414 -306 -262 -204 -205 -177 -159 -140 -118 -108 -110 -111 -119 -125 -112 -103 -117 -114 -72 -63 -60 -42 -29 -26 -25 -20 -21 -22 -21 -13 -22 -25 -44 -49 -70
-189 -244 -345 -419 -344 -447 -492 -569 -377 -235 -213 -206 -150 -123 -115 -110 -116 -114 -112 -109 -119 -127 -128 -118 -112 -107 -90 -54 -42 -18 -20 -28 -26 -23 -24 -24 -19 -19 -17 -23 -22 -35 -61
-178 -218 -268 -326 -353 -399 -366 -361 -308 -281 -182 -124 -109 -86 -61 -83 -107 -117 -120 -124 -121 -114 -121 -116 -107 -98 -87 -73 -35 -23 -21 -19 -19 -30 -24 -20 -25 -24 -17 -23 -20 -36 -30
-185 -198 -267 -308 -357 -339 -408 -389 -373 -269 -197 -101 -98 -144 -153 -57 -105 -133 -116 -123 -132 -130 -110 -117 -116 -100 -78 -63 -37 -27 -43 -33 -43 -50 -41 -51 -74 -65 -72 -77 -55 -76 -81
-220 -228 -260 -271 -303 -275 -283 -317 -359 -345 -261 -226 -230 -228 -255 -267 -223 -138 -99 -129 -154 -163 -153 -123 -106 -104 -84 -84 -57 -37 -39 -34 -32 -32 -30 -47 -46 -49 -54 -46 -59 -58 -40
-202 -173 -238 -241 -249 -278 -259 -230 -243 -300 -327 -363 -363 -343 -354 -385 -416 -366 -206 -110 -67 -138 -162 -152 -141 -121 -98 -90 -60 -65 -66 -67 -84 -100 -87 -75 -42 -25 -48 -59 -48 -30 -37
-182 -178 -175 -152 -168 -213 -229 -231 -303 -331 -412 -423 -456 -355 -374 -0 -218 -467 -405 -329 -74 -32 -77 -104 -121 -104 -116 -68 -60 -56 -22 -29 -55 -71 -64 -42 -51 -38 -28 -28 -18 -16 -20
-71 -115 -135 -116 -137 -184 -174 -173 -206 -301 -387 -176 -202 -0 -224 -537 -470 -411 -426 -366 -169 -13 -31 -30 -101 -262 -234 -315 -389 -310 -145 -31 -19 -21 -31 -26 -77 -92 -100 -103 -56 -51 -59
-184 -147 -127 -112 -137 -159 -163 -137 -142 -178 -234 -0 -0 -0 -0 -0 -397 -407 -393 -331 -164 -36 -12 -57 -155 -319 -396 -451 -218 -50 -439 -187 -26 -32 -25 -71 -92 -110 -119 -136 -130 -148 -99
-0 -0 -107 -93 -61 -102 -113 -112 -108 -144 -202 -279 -324 -0 -0 -0 -195 -346 -398 -502 -227 -64 -60 -114 -172 -294 -223 -170 -130 -155 -261 -182 -153 -80 -76 -136 -135 -128 -124 -145 -169 -133 -97
-0 -0 -0 -0 -97 -44 -66 -79 -95 -111 -123 -200 -0 -0 -0 -0 -0 -403 -537 -598 -475 -250 -98 -137 -215 -225 -212 -212 -240 -44 -0 -142 -67 -46 -48 -86 -84 -74 -84 -82 -76 -86 -28
-0 -0 -0 -0 -0 -109 -84 -70 -90 -105 -115 -139 -0 -0 -0 -0 -0 -492 -438 -0 -0 -494 -349 -321 -180 -302 -383 -447 -433 -206 -348 -171 -111 -70 -33 -58 -97 -65 -43 -50 -44 -51 -72
Wind_Speed
23 21 20 22 22 22 23 24 22 21 18 14 15 13 17 21 20 22 19 19 20 18 16 15 11 12 13 13 12 10 11 9 9 9 10 16 13 9 12 12 12 16 16
23 21 17 17 20 22 22 23 23 22 22 18 8 8 4 2 11 20 19 18 20 19 15 11 12 12 10 11 12 12 10 8 8 10 11 18 15 9 9 11 12 13 13
21 20 20 18 18 21 21 22 22 22 21 19 8 21 14 12 7 7 17 17 20 21 18 14 12 12 13 14 15 15 12 10 10 11 10 15 17 21 15 8 10 9 9
20 20 19 16 16 18 19 20 20 20 19 19 22 24 19 10 3 7 12 15 19 21 20 13 14 14 14 14 15 14 13 9 12 10 11 6 17 10 15 15 10 7 5
21 18 17 14 14 14 16 18 18 19 17 18 20 23 23 16 2 5 13 16 20 22 22 19 15 15 13 14 14 13 13 13 10 7 10 7 8 7 6 4 8 10 5
23 15 15 15 15 13 13 16 18 18 18 17 19 20 23 19 14 10 15 19 19 21 22 22 19 14 13 16 13 13 13 12 10 7 4 5 8 6 8 3 5 2 4
19 15 16 17 18 13 13 16 16 17 17 17 16 18 18 16 14 14 15 18 17 17 20 18 19 19 17 15 13 12 13 10 8 8 7 6 6 1 9 8 10 3 13
14 12 14 15 14 15 16 16 17 14 16 18 16 14 16 16 15 14 13 14 15 17 14 15 16 18 18 16 13 12 13 9 9 10 9 8 9 5 4 4 6 2 12
8 7 9 10 10 12 17 16 14 15 14 13 10 11 13 17 18 16 13 14 15 18 18 17 19 21 20 18 16 15 16 12 12 12 11 7 5 2 3 3 3 2 8
7 8 10 7 6 7 8 11 13 15 5 3 8 14 19 19 20 19 20 17 16 16 16 18 20 22 21 19 19 17 19 13 13 12 9 9 5 5 4 4 4 5 2
11 10 9 7 6 5 8 8 12 10 5 6 6 23 29 19 20 23 24 24 22 21 20 18 16 19 20 18 21 21 19 15 14 11 11 10 4 5 4 4 5 6 7
10 9 9 8 6 4 6 6 11 9 9 6 9 14 24 21 22 23 27 26 28 26 25 22 19 19 20 18 18 21 17 16 17 16 11 8 5 8 8 6 6 6 6
10 9 9 9 9 12 8 7 1 26 18 15 4 5 4 24 25 26 27 29 30 30 29 26 25 24 24 23 23 24 22 20 17 13 11 9 9 12 10 7 6 6 7
9 10 9 8 8 14 18 13 19 22 26 14 5 7 7 27 26 27 28 27 27 29 28 26 28 26 25 24 23 23 22 18 14 11 11 11 11 12 12 10 9 9 8
7 7 8 7 9 12 14 16 20 25 28 8 1 4 9 30 28 28 29 29 28 28 27 24 24 25 25 25 24 21 20 18 16 14 11 12 12 12 10 9 9 8 8
7 9 9 7 7 9 13 19 20 23 22 10 13 23 28 28 27 28 30 30 28 28 26 26 25 25 26 26 24 22 20 20 18 16 12 12 11 10 9 11 10 8 8
8 8 8 7 4 5 5 16 21 22 20 15 15 22 30 34 33 31 28 28 27 26 22 22 23 25 23 21 21 21 22 21 17 15 13 9 7 9 8 11 11 9 9
7 7 8 9 8 6 8 13 17 18 16 16 16 13 26 30 31 36 35 32 12 14 14 18 7 9 19 14 13 14 10 16 9 10 10 8 7 8 9 7 7 9 6
9 8 8 8 8 8 7 13 19 19 18 17 18 18 19 25 29 33 33 37 31 28 22 19 14 11 8 7 6 6 9 6 4 3 3 1 1 2 3 3 5 3 3
16 14 11 10 8 9 13 18 20 22 23 27 26 26 29 31 34 36 35 35 37 30 26 24 17 13 12 10 10 9 9 9 8 8 6 4 5 5 3 2 1 3 3
19 19 15 14 14 14 15 19 23 26 26 27 30 32 34 36 38 38 38 38 36 33 30 28 28 23 21 21 16 15 18 17 16 13 12 13 12 12 16 10 11 11 18
28 28 27 22 19 16 17 21 24 26 30 32 35 36 37 37 39 39 39 40 39 35 31 28 22 22 18 18 22 27 26 22 23 22 20 22 19 16 13 13 15 19 21
33 34 29 27 26 25 23 24 26 28 34 38 39 39 38 38 36 39 40 40 38 37 30 25 24 23 19 20 22 28 31 30 30 26 18 17 17 14 16 15 15 18 23
36 36 36 33 31 28 28 30 31 29 32 36 39 39 38 39 37 34 35 37 37 37 29 25 25 23 23 24 28 37 30 34 30 27 23 22 26 19 20 18 17 19 22
42 40 40 39 36 29 30 31 31 33 35 34 38 40 39 38 37 35 36 36 35 34 30 26 23 23 23 18 11 13 19 25 34 29 7 18 18 17 18 17 17 18 19
43 45 46 45 42 40 37 32 30 31 33 37 38 40 39 38 37 36 36 32 33 34 32 27 21 20 19 14 7 5 1 8 17 6 4 5 13 14 16 12 12 12 14
Wind_Direction
175 170 162 165 162 161 159 162 161 161 152 145 151 150 158 170 169 171 161 159 161 152 146 144 129 130 136 141 131 116 123 112 86 71 164 215 188 155 171 169 173 181 180
173 171 159 158 162 162 160 161 165 162 165 160 152 279 134 98 143 166 161 160 164 163 150 141 143 143 133 133 138 138 117 107 83 39 51 349 15 63 142 167 162 170 175
171 167 164 158 160 164 162 161 162 165 165 164 141 254 273 292 311 136 163 164 170 174 167 153 147 144 147 152 156 160 151 140 130 144 31 15 356 300 18 125 160 154 161
177 173 167 158 159 163 163 161 161 163 163 162 165 175 169 155 145 151 159 166 175 181 177 155 157 156 157 159 163 162 162 131 147 106 155 83 348 41 23 30 34 145 135
178 171 169 160 158 154 159 163 158 161 159 163 168 180 179 168 286 158 167 174 182 185 188 178 165 168 163 165 163 162 165 167 157 129 42 71 112 111 123 106 78 60 129
179 164 154 152 157 151 154 163 161 163 163 162 171 176 186 174 164 160 171 178 181 185 189 190 183 173 172 177 171 172 176 175 173 165 132 52 27 46 41 94 171 122 120
166 156 147 152 156 152 152 162 167 166 166 167 165 172 177 172 170 170 171 178 180 182 188 184 187 190 187 186 181 180 186 176 178 186 188 189 195 82 357 360 358 15 349
153 153 148 148 153 158 159 161 169 168 166 170 171 168 173 174 175 175 176 179 182 186 180 184 187 191 189 188 184 187 193 188 194 201 202 202 206 202 200 210 357 353 350
126 111 126 137 146 165 172 173 172 177 174 168 161 168 170 177 181 180 179 184 185 189 190 189 195 199 199 199 195 197 202 195 201 206 206 203 205 188 176 172 159 77 356
70 95 121 115 126 152 169 182 187 188 191 270 302 185 188 182 186 187 191 189 187 187 187 194 198 203 202 201 203 204 207 195 200 201 198 204 194 184 167 160 147 146 103
73 85 94 104 98 108 166 198 204 212 240 214 196 196 204 186 187 196 199 200 198 195 194 193 192 199 202 203 210 209 208 198 202 193 197 202 166 165 126 86 81 123 123
54 61 81 89 74 32 355 306 276 249 266 215 193 187 192 191 194 200 206 205 208 207 207 202 198 199 200 199 201 206 197 195 201 204 194 184 133 164 154 107 109 123 110
56 51 67 71 61 41 68 57 295 232 282 290 262 282 256 196 204 207 210 210 212 215 213 209 208 209 209 208 209 212 210 201 200 198 191 182 160 178 154 116 95 77 45
25 36 57 68 64 40 33 7 266 259 266 299 299 295 287 205 207 212 212 209 208 212 211 209 213 210 209 207 206 205 205 201 195 187 182 181 171 174 166 150 146 126 111
38 29 47 56 20 22 31 349 288 266 256 311 216 168 294 231 211 212 217 215 211 210 209 205 206 207 207 206 205 201 201 200 196 189 179 183 177 173 161 148 150 129 118
4 356 355 32 56 23 8 327 327 299 294 312 295 279 266 215 211 214 218 219 215 213 208 208 207 207 208 209 204 200 198 200 198 194 182 179 180 171 161 166 163 148 141
329 345 352 358 356 150 8 334 312 314 324 321 301 287 258 246 236 227 216 216 213 212 201 200 201 205 202 196 197 198 201 201 193 189 181 171 160 167 162 175 175 166 173
336 346 349 359 12 22 353 331 307 327 341 330 327 333 282 274 276 256 233 225 239 211 210 203 214 203 200 193 193 193 192 196 187 185 177 167 158 158 164 163 166 177 174
323 336 356 8 13 1 8 331 315 313 333 331 334 332 320 307 301 285 280 273 282 282 284 283 276 273 267 232 239 268 292 277 272 216 191 181 133 131 152 170 177 191 216
312 317 331 330 333 335 327 323 322 317 316 306 306 312 308 304 297 289 287 285 279 284 283 281 272 251 245 248 242 247 265 258 269 287 276 273 303 309 307 305 275 243 239
309 311 311 311 312 317 322 316 312 308 306 307 305 304 304 302 296 292 288 286 288 285 282 280 277 275 277 278 271 271 279 280 283 285 289 297 302 304 305 306 312 316 319
300 301 297 299 301 302 306 305 307 307 304 301 300 300 301 303 297 293 290 286 284 285 285 280 279 276 278 289 295 285 281 280 281 287 292 296 304 303 301 305 309 313 313
302 300 296 291 291 290 294 296 302 304 301 297 295 298 301 301 302 297 293 288 284 282 283 282 271 272 272 278 292 296 287 281 276 282 288 294 306 314 303 309 316 315 309
304 304 302 293 285 284 286 289 293 299 302 302 295 296 297 298 301 302 298 293 287 281 280 277 275 277 281 284 289 303 279 281 278 288 286 286 284 309 305 308 315 314 315
299 300 298 295 289 285 284 286 289 292 294 298 294 292 294 297 300 300 298 295 291 286 279 275 276 278 280 265 259 292 307 274 261 282 253 287 296 305 313 314 316 316 315
298 295 292 290 288 287 284 282 283 285 289 290 290 290 292 294 297 299 299 300 296 288 282 277 270 280 288 281 243 249 10 171 182 204 245 302 311 315 316 324 338 331 323